AIQ3432 VTCC-VTBD

Flight info

Callsign AIQ3432
Flight time 0h 50m
Altitude 35000
Route PANTA2S PANTA Y7 BLAFF NAKON3A
Aircraft A20N/M-SDE2E3FGHIRWXY/LB1

Departure

Time 2026-05-07 12:26
Airport Chiang Mai International Airport (VTCC)

Arrival

Time 2026-05-07 13:17
Airport Don Mueang International Airport (VTBD)
Time Latitude Longitude Altitude Speed Heading
2026-05-07 11:59 18.76980 98.96740 1024 ft 0 kts 90°
2026-05-07 12:16 18.76980 98.96734 1025 ft 2 kts 90°
2026-05-07 12:16 18.76980 98.96719 1025 ft 2 kts 90°
2026-05-07 12:16 18.76980 98.96703 1025 ft 2 kts 90°
2026-05-07 12:17 18.76980 98.96687 1025 ft 2 kts 90°
2026-05-07 12:17 18.76980 98.96677 1025 ft 2 kts 84°
2026-05-07 12:17 18.76975 98.96662 1025 ft 2 kts 54°
2026-05-07 12:17 18.76964 98.96651 1025 ft 2 kts 30°
2026-05-07 12:18 18.76950 98.96645 1026 ft 1 kts
2026-05-07 12:18 18.76943 98.96645 1026 ft 1 kts 354°
2026-05-07 12:18 18.76940 98.96646 1025 ft 0 kts 357°
2026-05-07 12:22 18.76953 98.96645 1025 ft 5 kts 357°
2026-05-07 12:22 18.77018 98.96635 1026 ft 12 kts 342°
2026-05-07 12:22 18.77094 98.96587 1028 ft 12 kts 317°
2026-05-07 12:22 18.77152 98.96522 1031 ft 12 kts 339°
2026-05-07 12:23 18.77291 98.96519 1031 ft 23 kts
2026-05-07 12:23 18.77459 98.96519 1034 ft 23 kts
2026-05-07 12:23 18.77622 98.96518 1037 ft 23 kts 360°
2026-05-07 12:23 18.77798 98.96519 1038 ft 26 kts
2026-05-07 12:24 18.77989 98.96519 1041 ft 26 kts 360°
2026-05-07 12:24 18.78140 98.96501 1044 ft 17 kts 330°
2026-05-07 12:24 18.78244 98.96435 1046 ft 17 kts 328°
2026-05-07 12:24 18.78338 98.96369 1048 ft 14 kts 318°
2026-05-07 12:25 18.78351 98.96300 1049 ft 7 kts 220°
2026-05-07 12:25 18.78296 98.96294 1049 ft 8 kts 179°
2026-05-07 12:25 18.78244 98.96294 1049 ft 0 kts 180°
2026-05-07 12:26 18.78094 98.96294 1047 ft 56 kts 180°
2026-05-07 12:26 18.77467 98.96293 1039 ft 120 kts 180°
2026-05-07 12:26 18.76456 98.96292 1127 ft 160 kts 180°
2026-05-07 12:26 18.75337 98.96285 1685 ft 161 kts 181°
2026-05-07 12:27 18.74217 98.96264 2292 ft 164 kts 180°
2026-05-07 12:27 18.73070 98.96252 2846 ft 171 kts 179°
2026-05-07 12:27 18.71825 98.96252 3151 ft 185 kts 178°
2026-05-07 12:27 18.70488 98.96259 3464 ft 199 kts 178°
2026-05-07 12:28 18.69038 98.96263 3762 ft 217 kts 179°
2026-05-07 12:28 18.67457 98.96263 4112 ft 235 kts 179°
2026-05-07 12:28 18.65779 98.96262 4468 ft 252 kts 180°
2026-05-07 12:28 18.63960 98.96258 4846 ft 270 kts 180°
2026-05-07 12:29 18.62027 98.96252 5358 ft 281 kts 180°
2026-05-07 12:29 18.60063 98.96247 6072 ft 284 kts 181°
2026-05-07 12:29 18.58074 98.96242 6795 ft 288 kts 181°
2026-05-07 12:29 18.56062 98.96233 7523 ft 292 kts 182°
2026-05-07 12:30 18.54021 98.96225 8255 ft 296 kts 181°
2026-05-07 12:30 18.51941 98.96242 9027 ft 300 kts 176°
2026-05-07 12:30 18.49937 98.96880 9759 ft 307 kts 148°
2026-05-07 12:30 18.48394 98.98386 10524 ft 310 kts 128°
2026-05-07 12:31 18.47043 99.00214 11010 ft 324 kts 127°
2026-05-07 12:31 18.45645 99.02137 11601 ft 334 kts 127°
2026-05-07 12:31 18.44213 99.04088 12334 ft 338 kts 127°
2026-05-07 12:31 18.42769 99.06036 13059 ft 341 kts 127°
2026-05-07 12:32 18.41304 99.07997 13802 ft 344 kts 127°
2026-05-07 12:32 18.39827 99.09965 14561 ft 345 kts 128°
2026-05-07 12:32 18.38341 99.11942 15287 ft 346 kts 128°
2026-05-07 12:32 18.36851 99.13920 15967 ft 348 kts 128°
2026-05-07 12:33 18.33832 99.17920 17321 ft 351 kts 129°
2026-05-07 12:33 18.32312 99.19930 17849 ft 356 kts 129°
2026-05-07 12:33 18.30752 99.21993 18374 ft 361 kts 129°
2026-05-07 12:34 18.29200 99.24045 18914 ft 364 kts 129°
2026-05-07 12:34 18.27619 99.26137 19457 ft 367 kts 129°
2026-05-07 12:34 18.26030 99.28239 19983 ft 370 kts 129°
2026-05-07 12:34 18.24371 99.30334 20498 ft 373 kts 135°
2026-05-07 12:35 18.22344 99.32044 20982 ft 375 kts 149°
2026-05-07 12:35 18.20005 99.33209 21465 ft 377 kts 161°
2026-05-07 12:35 18.17506 99.34068 21960 ft 379 kts 163°
2026-05-07 12:35 18.14962 99.34898 22441 ft 382 kts 163°
2026-05-07 12:36 18.12427 99.35727 22901 ft 385 kts 163°
2026-05-07 12:36 18.09861 99.36571 23339 ft 388 kts 163°
2026-05-07 12:36 18.07244 99.37439 23762 ft 393 kts 163°
2026-05-07 12:36 18.04646 99.38303 24173 ft 397 kts 163°
2026-05-07 12:37 18.01972 99.39193 24575 ft 401 kts 163°
2026-05-07 12:37 17.99315 99.40079 24968 ft 405 kts 163°
2026-05-07 12:37 17.96602 99.40984 25369 ft 408 kts 163°
2026-05-07 12:37 17.93894 99.41888 25757 ft 412 kts 163°
2026-05-07 12:38 17.91145 99.42804 26140 ft 415 kts 163°
2026-05-07 12:38 17.88348 99.43738 26519 ft 419 kts 163°
2026-05-07 12:38 17.85573 99.44663 26853 ft 423 kts 163°
2026-05-07 12:38 17.82755 99.45602 27188 ft 427 kts 163°
2026-05-07 12:39 17.79918 99.46549 27535 ft 430 kts 163°
2026-05-07 12:39 17.77043 99.47508 27875 ft 434 kts 163°
2026-05-07 12:39 17.74149 99.48473 28224 ft 437 kts 163°
2026-05-07 12:39 17.71218 99.49450 28560 ft 440 kts 163°
2026-05-07 12:40 17.68319 99.50414 28909 ft 442 kts 163°
2026-05-07 12:40 17.65351 99.51397 29299 ft 444 kts 163°
2026-05-07 12:40 17.62406 99.52374 29801 ft 443 kts 163°
2026-05-07 12:40 17.59496 99.53340 30325 ft 441 kts 163°
2026-05-07 12:41 17.56570 99.54311 30824 ft 439 kts 163°
2026-05-07 12:41 17.53654 99.55281 31311 ft 438 kts 163°
2026-05-07 12:41 17.50750 99.56246 31775 ft 437 kts 163°
2026-05-07 12:41 17.47865 99.57204 32223 ft 436 kts 163°
2026-05-07 12:42 17.44960 99.58169 32687 ft 435 kts 163°
2026-05-07 12:42 17.42065 99.59129 33162 ft 434 kts 163°
2026-05-07 12:42 17.39194 99.60081 33602 ft 434 kts 163°
2026-05-07 12:42 17.36293 99.61043 33987 ft 435 kts 163°
2026-05-07 12:43 17.33387 99.62006 34366 ft 436 kts 163°
2026-05-07 12:43 17.30494 99.62965 34723 ft 437 kts 163°
2026-05-07 12:43 17.24675 99.64895 34807 ft 439 kts 163°
2026-05-07 12:44 17.18811 99.66838 34807 ft 440 kts 163°
2026-05-07 12:44 17.12987 99.68764 34805 ft 440 kts 163°
2026-05-07 12:45 17.07147 99.70697 34804 ft 440 kts 163°
2026-05-07 12:45 17.01291 99.72632 34801 ft 439 kts 163°
2026-05-07 12:46 16.95450 99.74563 34806 ft 440 kts 163°
2026-05-07 12:46 16.89584 99.76501 34811 ft 440 kts 163°
2026-05-07 12:47 16.83728 99.78434 34809 ft 440 kts 163°
2026-05-07 12:47 16.77869 99.80360 34805 ft 441 kts 163°
2026-05-07 12:48 16.72049 99.82274 34808 ft 441 kts 162°
2026-05-07 12:48 16.66155 99.84216 34802 ft 441 kts 162°
2026-05-07 12:49 16.60288 99.86147 34806 ft 441 kts 162°
2026-05-07 12:49 16.54432 99.88076 34803 ft 441 kts 162°
2026-05-07 12:50 16.48561 99.90007 34798 ft 441 kts 162°
2026-05-07 12:50 16.42706 99.91933 34797 ft 441 kts 162°
2026-05-07 12:51 16.36833 99.93862 34800 ft 442 kts 162°
2026-05-07 12:51 16.30920 99.95803 34800 ft 453 kts 162°
2026-05-07 12:52 16.24826 99.97810 34791 ft 469 kts 162°
2026-05-07 12:52 16.18478 99.99903 34784 ft 480 kts 162°
2026-05-07 12:53 16.12107 100.02003 34783 ft 481 kts 162°
2026-05-07 12:53 16.05715 100.04111 34781 ft 482 kts 162°
2026-05-07 12:54 15.99299 100.06223 34777 ft 482 kts 161°
2026-05-07 12:54 15.92935 100.08318 34778 ft 464 kts 161°
2026-05-07 12:55 15.89927 100.09306 34781 ft 448 kts 161°
2026-05-07 12:55 15.86958 100.10283 34412 ft 446 kts 161°
2026-05-07 12:55 15.83977 100.11263 33564 ft 449 kts 161°
2026-05-07 12:55 15.81004 100.12241 32856 ft 448 kts 161°
2026-05-07 12:56 15.78035 100.13216 32198 ft 448 kts 161°
2026-05-07 12:56 15.75059 100.14195 31570 ft 448 kts 161°
2026-05-07 12:56 15.72096 100.15169 30920 ft 448 kts 161°
2026-05-07 12:56 15.69119 100.16147 30247 ft 448 kts 161°
2026-05-07 12:57 15.66134 100.17127 29565 ft 448 kts 161°
2026-05-07 12:57 15.63187 100.18094 28875 ft 449 kts 161°
2026-05-07 12:57 15.60207 100.19070 28322 ft 445 kts 161°
2026-05-07 12:57 15.57266 100.20035 27848 ft 439 kts 161°
2026-05-07 12:58 15.54366 100.20985 27363 ft 435 kts 161°
2026-05-07 12:58 15.51499 100.21925 26875 ft 430 kts 161°
2026-05-07 12:58 15.48669 100.22850 26388 ft 426 kts 160°
2026-05-07 12:58 15.45853 100.23771 25902 ft 422 kts 161°
2026-05-07 12:59 15.43038 100.24692 25416 ft 418 kts 160°
2026-05-07 12:59 15.40270 100.25599 24940 ft 415 kts 160°
2026-05-07 12:59 15.37519 100.26500 24463 ft 411 kts 160°
2026-05-07 12:59 15.34833 100.27380 24005 ft 410 kts 160°
2026-05-07 13:00 15.32031 100.28300 23511 ft 435 kts 161°
2026-05-07 13:00 15.29062 100.29273 22973 ft 451 kts 161°
2026-05-07 13:00 15.26084 100.30324 22453 ft 450 kts 158°
2026-05-07 13:00 15.23156 100.31438 21941 ft 447 kts 158°
2026-05-07 13:01 15.20259 100.32553 21410 ft 443 kts 158°
2026-05-07 13:01 15.17356 100.33675 20917 ft 440 kts 158°
2026-05-07 13:01 15.14503 100.34779 20432 ft 437 kts 158°
2026-05-07 13:01 15.11661 100.35875 19942 ft 434 kts 158°
2026-05-07 13:02 15.08870 100.36951 19435 ft 430 kts 158°
2026-05-07 13:02 15.06038 100.38043 18893 ft 427 kts 158°
2026-05-07 13:02 15.03286 100.39103 18363 ft 423 kts 158°
2026-05-07 13:02 15.00519 100.40169 17788 ft 428 kts 158°
2026-05-07 13:03 14.97698 100.41255 17198 ft 428 kts 158°
2026-05-07 13:03 14.94914 100.42326 16665 ft 425 kts 158°
2026-05-07 13:03 14.92161 100.43385 16149 ft 422 kts 158°
2026-05-07 13:03 14.89398 100.44447 15630 ft 419 kts 158°
2026-05-07 13:04 14.86662 100.45497 15097 ft 416 kts 158°
2026-05-07 13:04 14.83987 100.46525 14539 ft 412 kts 158°
2026-05-07 13:04 14.81284 100.47562 13971 ft 409 kts 158°
2026-05-07 13:04 14.78641 100.48578 13406 ft 406 kts 158°
2026-05-07 13:05 14.76009 100.49590 12844 ft 403 kts 158°
2026-05-07 13:05 14.73376 100.50602 12277 ft 399 kts 158°
2026-05-07 13:05 14.70795 100.51585 11871 ft 392 kts 159°
2026-05-07 13:05 14.68221 100.52389 11612 ft 379 kts 162°
2026-05-07 13:06 14.65723 100.53103 11359 ft 365 kts 162°
2026-05-07 13:06 14.63273 100.53793 11005 ft 356 kts 162°
2026-05-07 13:06 14.60926 100.54459 10629 ft 349 kts 162°
2026-05-07 13:06 14.58577 100.55126 10270 ft 341 kts 162°
2026-05-07 13:07 14.56326 100.55769 9950 ft 333 kts 162°
2026-05-07 13:07 14.54121 100.56397 9661 ft 325 kts 162°
2026-05-07 13:07 14.51951 100.57018 9293 ft 320 kts 162°
2026-05-07 13:07 14.49810 100.57630 9030 ft 313 kts 162°
2026-05-07 13:08 14.47749 100.58218 8966 ft 302 kts 162°
2026-05-07 13:08 14.45722 100.58798 8592 ft 300 kts 162°
2026-05-07 13:08 14.43729 100.59366 8376 ft 291 kts 162°
2026-05-07 13:08 14.41825 100.59908 8276 ft 278 kts 162°
2026-05-07 13:09 14.39986 100.60432 8169 ft 267 kts 162°
2026-05-07 13:09 14.38184 100.60946 7850 ft 267 kts 162°
2026-05-07 13:09 14.36404 100.61454 7526 ft 267 kts 162°
2026-05-07 13:09 14.34603 100.61969 7208 ft 267 kts 162°
2026-05-07 13:10 14.32802 100.62483 6885 ft 267 kts 162°
2026-05-07 13:10 14.31019 100.62993 6570 ft 266 kts 162°
2026-05-07 13:10 14.29221 100.63506 6255 ft 265 kts 162°
2026-05-07 13:10 14.27404 100.64025 5936 ft 275 kts 162°
2026-05-07 13:11 14.25552 100.64553 5607 ft 276 kts 162°
2026-05-07 13:11 14.23712 100.65077 5281 ft 275 kts 163°
2026-05-07 13:11 14.21859 100.65606 4952 ft 274 kts 163°
2026-05-07 13:11 14.20021 100.66129 4510 ft 276 kts 163°
2026-05-07 13:12 14.18164 100.66658 4207 ft 272 kts 163°
2026-05-07 13:12 14.16354 100.67173 3843 ft 271 kts 163°
2026-05-07 13:12 14.14520 100.67696 3484 ft 269 kts 163°
2026-05-07 13:12 14.12725 100.68207 3198 ft 265 kts 163°
2026-05-07 13:13 14.10956 100.68712 2953 ft 259 kts 164°
2026-05-07 13:13 14.09252 100.69198 2758 ft 251 kts 164°
2026-05-07 13:13 14.07532 100.69362 2623 ft 242 kts 190°
2026-05-07 13:13 14.06008 100.68817 2620 ft 227 kts 205°
2026-05-07 13:14 14.04638 100.68039 2527 ft 219 kts 209°
2026-05-07 13:14 14.03326 100.67245 2280 ft 218 kts 209°
2026-05-07 13:14 14.02014 100.66482 2009 ft 217 kts 208°
2026-05-07 13:14 14.00700 100.65745 1724 ft 208 kts 207°
2026-05-07 13:15 13.99478 100.65066 1453 ft 190 kts 207°
2026-05-07 13:15 13.98351 100.64438 1293 ft 175 kts 207°
2026-05-07 13:15 13.97318 100.63860 1031 ft 161 kts 207°
2026-05-07 13:15 13.96378 100.63333 828 ft 146 kts 207°
2026-05-07 13:16 13.95497 100.62840 635 ft 141 kts 207°
2026-05-07 13:16 13.94647 100.62365 470 ft 140 kts 207°
2026-05-07 13:16 13.93784 100.61880 293 ft 139 kts 207°
2026-05-07 13:16 13.92932 100.61402 117 ft 139 kts 206°
2026-05-07 13:17 13.92086 100.60931 21 ft 132 kts 207°
2026-05-07 13:17 13.91358 100.60525 15 ft 97 kts 209°
2026-05-07 13:17 13.90913 100.60274 15 ft 48 kts 210°
2026-05-07 13:17 13.90717 100.60152 15 ft 28 kts 219°
2026-05-07 13:18 13.90604 100.60020 15 ft 16 kts 235°
2026-05-07 13:18 13.90606 100.59940 15 ft 9 kts 316°
2026-05-07 13:18 13.90673 100.59949 15 ft 11 kts 30°
2026-05-07 13:18 13.90774 100.60007 15 ft 22 kts 28°
2026-05-07 13:19 13.90920 100.60089 15 ft 24 kts 29°
2026-05-07 13:19 13.91074 100.60175 15 ft 24 kts 28°
2026-05-07 13:19 13.91225 100.60259 15 ft 24 kts 29°
2026-05-07 13:19 13.91374 100.60343 15 ft 23 kts 29°
2026-05-07 13:20 13.91518 100.60425 15 ft 22 kts 28°
2026-05-07 13:20 13.91658 100.60503 15 ft 23 kts 29°
2026-05-07 13:20 13.91802 100.60583 15 ft 24 kts 28°
2026-05-07 13:20 13.91953 100.60669 15 ft 25 kts 29°
2026-05-07 13:21 13.92116 100.60761 15 ft 27 kts 29°
2026-05-07 13:21 13.92239 100.60829 15 ft 15 kts 29°
2026-05-07 13:21 13.92333 100.60853 15 ft 14 kts 330°
2026-05-07 13:21 13.92425 100.60847 15 ft 14 kts 28°
2026-05-07 13:22 13.92527 100.60905 15 ft 18 kts 29°
2026-05-07 13:22 13.92639 100.60968 15 ft 16 kts 30°
2026-05-07 13:22 13.92727 100.60951 15 ft 14 kts 300°
2026-05-07 13:22 13.92731 100.60860 15 ft 13 kts 218°
2026-05-07 13:23 13.92662 100.60825 15 ft 4 kts 180°
2026-05-07 13:23 13.92642 100.60847 15 ft 4 kts 118°
2026-05-07 13:23 13.92627 100.60877 15 ft 5 kts 118°
2026-05-07 13:23 13.92621 100.60888 15 ft 0 kts 118°